Datum;"Wasserstand in cm";"Stationsnummer: 5873900";"Stationsname: Blankensee, Wehr OP";"Gew?sser: Nieplitz";"Fehlwerte: -777"
"24.03.2024 00:00";198
"24.03.2024 00:15";198
"24.03.2024 00:30";198
"24.03.2024 00:45";198
"24.03.2024 01:00";198
"24.03.2024 01:15";198
"24.03.2024 01:30";198
"24.03.2024 01:45";198
"24.03.2024 02:00";198
"24.03.2024 02:15";198
"24.03.2024 02:30";198
"24.03.2024 02:45";198
"24.03.2024 03:00";198
"24.03.2024 03:15";198
"24.03.2024 03:30";198
"24.03.2024 03:45";198
"24.03.2024 04:00";198
"24.03.2024 04:15";198
"24.03.2024 04:30";198
"24.03.2024 04:45";198
"24.03.2024 05:00";198
"24.03.2024 05:15";198
"24.03.2024 05:30";199
"24.03.2024 05:45";199
"24.03.2024 06:00";199
"24.03.2024 06:15";199
"24.03.2024 06:30";199
"24.03.2024 06:45";199
"24.03.2024 07:00";199
"24.03.2024 07:15";199
"24.03.2024 07:30";199
"24.03.2024 07:45";199
"24.03.2024 08:00";199
"24.03.2024 08:15";199
"24.03.2024 08:30";199
"24.03.2024 08:45";199
"24.03.2024 09:00";200
"24.03.2024 09:15";200
"24.03.2024 09:30";200
"24.03.2024 09:45";200
"24.03.2024 10:00";200
"24.03.2024 10:15";200
"24.03.2024 10:30";200
"24.03.2024 10:45";200
"24.03.2024 11:00";200
"24.03.2024 11:15";200
"24.03.2024 11:30";200
"24.03.2024 11:45";200
"24.03.2024 12:00";200
"24.03.2024 12:15";200
"24.03.2024 12:30";200
"24.03.2024 12:45";200
"24.03.2024 13:00";200
"24.03.2024 13:15";200
"24.03.2024 13:30";200
"24.03.2024 13:45";200
"24.03.2024 14:00";200
"24.03.2024 14:15";200
"24.03.2024 14:30";200
"24.03.2024 14:45";200
"24.03.2024 15:00";200
"24.03.2024 15:15";200
"24.03.2024 15:30";200
"24.03.2024 15:45";200
"24.03.2024 16:00";200
"24.03.2024 16:15";200
"24.03.2024 16:30";200
"24.03.2024 16:45";200
"24.03.2024 17:00";200
"24.03.2024 17:15";200
"24.03.2024 17:30";201
"24.03.2024 17:45";200
"24.03.2024 18:00";200
"24.03.2024 18:15";200
"24.03.2024 18:30";200
"24.03.2024 18:45";200
"24.03.2024 19:00";201
"24.03.2024 19:15";201
"24.03.2024 19:30";201
"24.03.2024 19:45";201
"24.03.2024 20:00";201
"24.03.2024 20:15";201
"24.03.2024 20:30";201
"24.03.2024 20:45";201
"24.03.2024 21:00";201
"24.03.2024 21:15";201
"24.03.2024 21:30";201
"24.03.2024 21:45";201
"24.03.2024 22:00";201
"24.03.2024 22:15";201
"24.03.2024 22:30";201
"24.03.2024 22:45";201
"24.03.2024 23:00";201
"24.03.2024 23:15";201
"24.03.2024 23:30";201
"24.03.2024 23:45";201
"25.03.2024 00:00";201
"25.03.2024 00:15";201
"25.03.2024 00:30";201
"25.03.2024 00:45";201
"25.03.2024 01:00";201
"25.03.2024 01:15";201
"25.03.2024 01:30";201
"25.03.2024 01:45";201
"25.03.2024 02:00";201
"25.03.2024 02:15";201
"25.03.2024 02:30";201
"25.03.2024 02:45";201
"25.03.2024 03:00";201
"25.03.2024 03:15";201
"25.03.2024 03:30";201
"25.03.2024 03:45";201
"25.03.2024 04:00";201
"25.03.2024 04:15";201
"25.03.2024 04:30";201
"25.03.2024 04:45";201
"25.03.2024 05:00";201
"25.03.2024 05:15";201
"25.03.2024 05:30";201
"25.03.2024 05:45";201
"25.03.2024 06:00";201
"25.03.2024 06:15";202
"25.03.2024 06:30";201
"25.03.2024 06:45";202
"25.03.2024 07:00";202
"25.03.2024 07:15";202
"25.03.2024 07:30";202
"25.03.2024 07:45";202
"25.03.2024 08:00";202
"25.03.2024 08:15";202
"25.03.2024 08:30";202
"25.03.2024 08:45";202
"25.03.2024 09:00";202
"25.03.2024 09:15";202
"25.03.2024 09:30";202
"25.03.2024 09:45";202
"25.03.2024 10:00";202
"25.03.2024 10:15";202
"25.03.2024 10:30";202
"25.03.2024 10:45";202
"25.03.2024 11:00";202
"25.03.2024 11:15";202
"25.03.2024 11:30";202
"25.03.2024 11:45";202
"25.03.2024 12:00";202
"25.03.2024 12:15";202
"25.03.2024 12:30";202
"25.03.2024 12:45";201
"25.03.2024 13:00";201
"25.03.2024 13:15";201
"25.03.2024 13:30";201
"25.03.2024 13:45";201
"25.03.2024 14:00";202
"25.03.2024 14:15";202
"25.03.2024 14:30";202
"25.03.2024 14:45";201
"25.03.2024 15:00";201
"25.03.2024 15:15";201
"25.03.2024 15:30";201
"25.03.2024 15:45";201
"25.03.2024 16:00";201
"25.03.2024 16:15";202
"25.03.2024 16:30";202
"25.03.2024 16:45";201
"25.03.2024 17:00";201
"25.03.2024 17:15";201
"25.03.2024 17:30";201
"25.03.2024 17:45";201
"25.03.2024 18:00";201
"25.03.2024 18:15";201
"25.03.2024 18:30";201
"25.03.2024 18:45";201
"25.03.2024 19:00";201
"25.03.2024 19:15";201
"25.03.2024 19:30";201
"25.03.2024 19:45";201
"25.03.2024 20:00";201
"25.03.2024 20:15";201
"25.03.2024 20:30";201
"25.03.2024 20:45";201
"25.03.2024 21:00";201
"25.03.2024 21:15";201
"25.03.2024 21:30";201
"25.03.2024 21:45";201
"25.03.2024 22:00";201
"25.03.2024 22:15";201
"25.03.2024 22:30";201
"25.03.2024 22:45";201
"25.03.2024 23:00";201
"25.03.2024 23:15";201
"25.03.2024 23:30";201
"25.03.2024 23:45";201
"26.03.2024 00:00";201
"26.03.2024 00:15";201
"26.03.2024 00:30";201
"26.03.2024 00:45";201
"26.03.2024 01:00";201
"26.03.2024 01:15";201
"26.03.2024 01:30";201
"26.03.2024 01:45";201
"26.03.2024 02:00";201
"26.03.2024 02:15";201
"26.03.2024 02:30";201
"26.03.2024 02:45";201
"26.03.2024 03:00";201
"26.03.2024 03:15";201
"26.03.2024 03:30";201
"26.03.2024 03:45";201
"26.03.2024 04:00";201
"26.03.2024 04:15";201
"26.03.2024 04:30";201
"26.03.2024 04:45";201
"26.03.2024 05:00";201
"26.03.2024 05:15";201
"26.03.2024 05:30";201
"26.03.2024 05:45";201
"26.03.2024 06:00";201
"26.03.2024 06:15";201
"26.03.2024 06:30";201
"26.03.2024 06:45";201
"26.03.2024 07:00";201
"26.03.2024 07:15";201
"26.03.2024 07:30";201
"26.03.2024 07:45";201
"26.03.2024 08:00";201
"26.03.2024 08:15";201
"26.03.2024 08:30";201
"26.03.2024 08:45";201
"26.03.2024 09:00";201
"26.03.2024 09:15";201
"26.03.2024 09:30";201
"26.03.2024 09:45";201
"26.03.2024 10:00";201
"26.03.2024 10:15";201
"26.03.2024 10:30";201
"26.03.2024 10:45";201
"26.03.2024 11:00";201
"26.03.2024 11:15";201
"26.03.2024 11:30";201
"26.03.2024 11:45";201
"26.03.2024 12:00";201
"26.03.2024 12:15";201
"26.03.2024 12:30";200
"26.03.2024 12:45";200
"26.03.2024 13:00";200
"26.03.2024 13:15";200
"26.03.2024 13:30";200
"26.03.2024 13:45";200
"26.03.2024 14:00";200
"26.03.2024 14:15";200
"26.03.2024 14:30";200
"26.03.2024 14:45";200
"26.03.2024 15:00";200
"26.03.2024 15:15";200
"26.03.2024 15:30";200
"26.03.2024 15:45";200
"26.03.2024 16:00";200
"26.03.2024 16:15";200
"26.03.2024 16:30";200
"26.03.2024 16:45";200
"26.03.2024 17:00";200
"26.03.2024 17:15";200
"26.03.2024 17:30";200
"26.03.2024 17:45";200
"26.03.2024 18:00";200
"26.03.2024 18:15";200
"26.03.2024 18:30";200
"26.03.2024 18:45";200
"26.03.2024 19:00";200
"26.03.2024 19:15";200
"26.03.2024 19:30";200
"26.03.2024 19:45";200
"26.03.2024 20:00";199
"26.03.2024 20:15";200
"26.03.2024 20:30";199
"26.03.2024 20:45";199
"26.03.2024 21:00";199
"26.03.2024 21:15";199
"26.03.2024 21:30";199
"26.03.2024 21:45";199
"26.03.2024 22:00";199
"26.03.2024 22:15";199
"26.03.2024 22:30";199
"26.03.2024 22:45";199
"26.03.2024 23:00";199
"26.03.2024 23:15";199
"26.03.2024 23:30";199
"26.03.2024 23:45";199
"27.03.2024 00:00";199
"27.03.2024 00:15";199
"27.03.2024 00:30";199
"27.03.2024 00:45";199
"27.03.2024 01:00";199
"27.03.2024 01:15";199
"27.03.2024 01:30";199
"27.03.2024 01:45";199
"27.03.2024 02:00";199
"27.03.2024 02:15";199
"27.03.2024 02:30";199
"27.03.2024 02:45";199
"27.03.2024 03:00";199
"27.03.2024 03:15";199
"27.03.2024 03:30";199
"27.03.2024 03:45";199
"27.03.2024 04:00";199
"27.03.2024 04:15";199
"27.03.2024 04:30";199
"27.03.2024 04:45";199
"27.03.2024 05:00";199
"27.03.2024 05:15";199
"27.03.2024 05:30";199
"27.03.2024 05:45";199
"27.03.2024 06:00";199
"27.03.2024 06:15";199
"27.03.2024 06:30";199
"27.03.2024 06:45";199
"27.03.2024 07:00";198
"27.03.2024 07:15";199
"27.03.2024 07:30";198
"27.03.2024 07:45";198
"27.03.2024 08:00";198
"27.03.2024 08:15";198
"27.03.2024 08:30";198
"27.03.2024 08:45";198
"27.03.2024 09:00";198
"27.03.2024 09:15";198
"27.03.2024 09:30";198
"27.03.2024 09:45";198
"27.03.2024 10:00";198
"27.03.2024 10:15";198
"27.03.2024 10:30";198
"27.03.2024 10:45";198
"27.03.2024 11:00";198
"27.03.2024 11:15";198
"27.03.2024 11:30";198
"27.03.2024 11:45";198
"27.03.2024 12:00";198
"27.03.2024 12:15";198
"27.03.2024 12:30";198
"27.03.2024 12:45";198
"27.03.2024 13:00";198
"27.03.2024 13:15";198
"27.03.2024 13:30";198
"27.03.2024 13:45";198
"27.03.2024 14:00";198
"27.03.2024 14:15";198
"27.03.2024 14:30";198
"27.03.2024 14:45";198
"27.03.2024 15:00";198
"27.03.2024 15:15";198
"27.03.2024 15:30";198
"27.03.2024 15:45";197
"27.03.2024 16:00";197
"27.03.2024 16:15";197
"27.03.2024 16:30";197
"27.03.2024 16:45";197
"27.03.2024 17:00";197
"27.03.2024 17:15";197
"27.03.2024 17:30";197
"27.03.2024 17:45";197
"27.03.2024 18:00";197
"27.03.2024 18:15";197
"27.03.2024 18:30";197
"27.03.2024 18:45";197
"27.03.2024 19:00";197
"27.03.2024 19:15";197
"27.03.2024 19:30";197
"27.03.2024 19:45";197
"27.03.2024 20:00";197
"27.03.2024 20:15";197
"27.03.2024 20:30";197
"27.03.2024 20:45";197
"27.03.2024 21:00";197
"27.03.2024 21:15";197
"27.03.2024 21:30";197
"27.03.2024 21:45";197
"27.03.2024 22:00";197
"27.03.2024 22:15";197
"27.03.2024 22:30";197
"27.03.2024 22:45";197
"27.03.2024 23:00";197
"27.03.2024 23:15";197
"27.03.2024 23:30";197
"27.03.2024 23:45";197
"28.03.2024 00:00";197
"28.03.2024 00:15";197
"28.03.2024 00:30";196
"28.03.2024 00:45";196
"28.03.2024 01:00";196
"28.03.2024 01:15";196
"28.03.2024 01:30";196
"28.03.2024 01:45";196
"28.03.2024 02:00";196
"28.03.2024 02:15";196
"28.03.2024 02:30";196
"28.03.2024 02:45";196
"28.03.2024 03:00";196
"28.03.2024 03:15";196
"28.03.2024 03:30";196
"28.03.2024 03:45";196
"28.03.2024 04:00";196
"28.03.2024 04:15";196
"28.03.2024 04:30";196
"28.03.2024 04:45";196
"28.03.2024 05:00";196
"28.03.2024 05:15";196
"28.03.2024 05:30";196
"28.03.2024 05:45";196
"28.03.2024 06:00";196
"28.03.2024 06:15";196
"28.03.2024 06:30";196
"28.03.2024 06:45";196
"28.03.2024 07:00";197
"28.03.2024 07:15";196
"28.03.2024 07:30";196
"28.03.2024 07:45";196
"28.03.2024 08:00";196
"28.03.2024 08:15";196
"28.03.2024 08:30";196
"28.03.2024 08:45";196
"28.03.2024 09:00";196
"28.03.2024 09:15";196
"28.03.2024 09:30";196
"28.03.2024 09:45";196
"28.03.2024 10:00";196
"28.03.2024 10:15";196
"28.03.2024 10:30";196
"28.03.2024 10:45";196
"28.03.2024 11:00";196
"28.03.2024 11:15";196
"28.03.2024 11:30";196
"28.03.2024 11:45";195
"28.03.2024 12:00";195
"28.03.2024 12:15";196
"28.03.2024 12:30";195
"28.03.2024 12:45";195
"28.03.2024 13:00";195
"28.03.2024 13:15";196
"28.03.2024 13:30";196
"28.03.2024 13:45";196
"28.03.2024 14:00";196
"28.03.2024 14:15";196
"28.03.2024 14:30";196
"28.03.2024 14:45";196
"28.03.2024 15:00";196
"28.03.2024 15:15";196
"28.03.2024 15:30";196
"28.03.2024 15:45";196
"28.03.2024 16:00";195
"28.03.2024 16:15";196
"28.03.2024 16:30";196
"28.03.2024 16:45";195
"28.03.2024 17:00";195
"28.03.2024 17:15";196
"28.03.2024 17:30";195
"28.03.2024 17:45";195
"28.03.2024 18:00";195
"28.03.2024 18:15";195
"28.03.2024 18:30";195
"28.03.2024 18:45";195
"28.03.2024 19:00";195
"28.03.2024 19:15";195
"28.03.2024 19:30";195
"28.03.2024 19:45";194
"28.03.2024 20:00";194
"28.03.2024 20:15";194
"28.03.2024 20:30";194
"28.03.2024 20:45";194
"28.03.2024 21:00";194
"28.03.2024 21:15";194
"28.03.2024 21:30";194
"28.03.2024 21:45";194
"28.03.2024 22:00";194
"28.03.2024 22:15";194
"28.03.2024 22:30";194
"28.03.2024 22:45";194
"28.03.2024 23:00";194
"28.03.2024 23:15";194
"28.03.2024 23:30";194
"28.03.2024 23:45";194
"29.03.2024 00:00";194
"29.03.2024 00:15";194
"29.03.2024 00:30";193
"29.03.2024 00:45";193
"29.03.2024 01:00";193
"29.03.2024 01:15";193
"29.03.2024 01:30";193
"29.03.2024 01:45";193
"29.03.2024 02:00";193
"29.03.2024 02:15";193
"29.03.2024 02:30";193
"29.03.2024 02:45";193
"29.03.2024 03:00";193
"29.03.2024 03:15";193
"29.03.2024 03:30";193
"29.03.2024 03:45";193
"29.03.2024 04:00";193
"29.03.2024 04:15";193
"29.03.2024 04:30";193
"29.03.2024 04:45";193
"29.03.2024 05:00";193
"29.03.2024 05:15";193
"29.03.2024 05:30";193
"29.03.2024 05:45";193
"29.03.2024 06:00";193
"29.03.2024 06:15";193
"29.03.2024 06:30";193
"29.03.2024 06:45";193
"29.03.2024 07:00";193
"29.03.2024 07:15";193
"29.03.2024 07:30";193
"29.03.2024 07:45";193
"29.03.2024 08:00";193
"29.03.2024 08:15";193
"29.03.2024 08:30";193
"29.03.2024 08:45";192
"29.03.2024 09:00";192
"29.03.2024 09:15";192
"29.03.2024 09:30";192
"29.03.2024 09:45";192
"29.03.2024 10:00";192
"29.03.2024 10:15";192
"29.03.2024 10:30";192
"29.03.2024 10:45";193
"29.03.2024 11:00";193
"29.03.2024 11:15";192
"29.03.2024 11:30";192
"29.03.2024 11:45";192
"29.03.2024 12:00";192
"29.03.2024 12:15";192
"29.03.2024 12:30";192
"29.03.2024 12:45";192
"29.03.2024 13:00";192
"29.03.2024 13:15";192
"29.03.2024 13:30";192
"29.03.2024 13:45";192
"29.03.2024 14:00";192
"29.03.2024 14:15";192
"29.03.2024 14:30";192
"29.03.2024 14:45";192
"29.03.2024 15:00";192
"29.03.2024 15:15";192
"29.03.2024 15:30";192
"29.03.2024 15:45";192
"29.03.2024 16:00";192
"29.03.2024 16:15";192
"29.03.2024 16:30";192
"29.03.2024 16:45";192
"29.03.2024 17:00";192
"29.03.2024 17:15";192
"29.03.2024 17:30";192
"29.03.2024 17:45";192
"29.03.2024 18:00";192
"29.03.2024 18:15";192
"29.03.2024 18:30";192
"29.03.2024 18:45";191
"29.03.2024 19:00";191
"29.03.2024 19:15";191
"29.03.2024 19:30";192
"29.03.2024 19:45";191
"29.03.2024 20:00";191
"29.03.2024 20:15";191
"29.03.2024 20:30";191
"29.03.2024 20:45";191
"29.03.2024 21:00";191
"29.03.2024 21:15";191
"29.03.2024 21:30";191
"29.03.2024 21:45";191
"29.03.2024 22:00";191
"29.03.2024 22:15";191
"29.03.2024 22:30";191
"29.03.2024 22:45";191
"29.03.2024 23:00";191
"29.03.2024 23:15";191
"29.03.2024 23:30";191
"29.03.2024 23:45";191
"30.03.2024 00:00";191
"30.03.2024 00:15";191
"30.03.2024 00:30";191
"30.03.2024 00:45";191
"30.03.2024 01:00";191
"30.03.2024 01:15";191
"30.03.2024 01:30";191
"30.03.2024 01:45";191
"30.03.2024 02:00";191
"30.03.2024 02:15";191
"30.03.2024 02:30";191
"30.03.2024 02:45";191
"30.03.2024 03:00";191
"30.03.2024 03:15";191
"30.03.2024 03:30";191
"30.03.2024 03:45";191
"30.03.2024 04:00";190
"30.03.2024 04:15";190
"30.03.2024 04:30";190
"30.03.2024 04:45";190
"30.03.2024 05:00";190
"30.03.2024 05:15";190
"30.03.2024 05:30";190
"30.03.2024 05:45";190
"30.03.2024 06:00";190
"30.03.2024 06:15";190
"30.03.2024 06:30";190
"30.03.2024 06:45";190
"30.03.2024 07:00";190
"30.03.2024 07:15";190
"30.03.2024 07:30";190
"30.03.2024 07:45";190
"30.03.2024 08:00";190
"30.03.2024 08:15";190
"30.03.2024 08:30";190
"30.03.2024 08:45";190
"30.03.2024 09:00";190
"30.03.2024 09:15";190
"30.03.2024 09:30";190
"30.03.2024 09:45";190
"30.03.2024 10:00";190
"30.03.2024 10:15";190
"30.03.2024 10:30";190
"30.03.2024 10:45";190
"30.03.2024 11:00";190
"30.03.2024 11:15";190
"30.03.2024 11:30";190
"30.03.2024 11:45";190
"30.03.2024 12:00";190
"30.03.2024 12:15";190
"30.03.2024 12:30";190
"30.03.2024 12:45";190
"30.03.2024 13:00";190
"30.03.2024 13:15";190
"30.03.2024 13:30";190
"30.03.2024 13:45";190
"30.03.2024 14:00";190
"30.03.2024 14:15";190
"30.03.2024 14:30";190
"30.03.2024 14:45";190
"30.03.2024 15:00";190
"30.03.2024 15:15";190
"30.03.2024 15:30";189
"30.03.2024 15:45";189
"30.03.2024 16:00";189
"30.03.2024 16:15";189
"30.03.2024 16:30";189
"30.03.2024 16:45";189
"30.03.2024 17:00";189
"30.03.2024 17:15";189
"30.03.2024 17:30";189
"30.03.2024 17:45";189
"30.03.2024 18:00";189
"30.03.2024 18:15";189
"30.03.2024 18:30";189
"30.03.2024 18:45";189
"30.03.2024 19:00";189
"30.03.2024 19:15";189
"30.03.2024 19:30";189
"30.03.2024 19:45";189
"30.03.2024 20:00";189
"30.03.2024 20:15";189
"30.03.2024 20:30";189
"30.03.2024 20:45";189
"30.03.2024 21:00";189
"30.03.2024 21:15";189
"30.03.2024 21:30";189
"30.03.2024 21:45";189
"30.03.2024 22:00";189
"30.03.2024 22:15";189
"30.03.2024 22:30";189
"30.03.2024 22:45";189
"30.03.2024 23:00";189
"30.03.2024 23:15";189
"30.03.2024 23:30";189
"30.03.2024 23:45";189
"31.03.2024 00:00";189
"31.03.2024 00:15";189
"31.03.2024 00:30";189
"31.03.2024 00:45";189
"31.03.2024 01:00";189
"31.03.2024 01:15";188
"31.03.2024 01:30";188
"31.03.2024 01:45";188
"31.03.2024 02:00";188
"31.03.2024 02:15";188
"31.03.2024 02:30";188
"31.03.2024 02:45";188
"31.03.2024 03:00";188
"31.03.2024 03:15";188
"31.03.2024 03:30";188
"31.03.2024 03:45";188
"31.03.2024 04:00";188
"31.03.2024 04:15";188
"31.03.2024 04:30";188
"31.03.2024 04:45";188
"31.03.2024 05:00";188
"31.03.2024 05:15";188
"31.03.2024 05:30";188
"31.03.2024 05:45";188
"31.03.2024 06:00";188
"31.03.2024 06:15";188
"31.03.2024 06:30";188
"31.03.2024 06:45";188
"31.03.2024 07:00";188
"31.03.2024 07:15";188
"31.03.2024 07:30";188
"31.03.2024 07:45";188
"31.03.2024 08:00";188
"31.03.2024 08:15";188
"31.03.2024 08:30";188
"31.03.2024 08:45";188
"31.03.2024 09:00";188
"31.03.2024 09:15";188
"31.03.2024 09:30";188
"31.03.2024 09:45";188
"31.03.2024 10:00";188
"31.03.2024 10:15";188
"31.03.2024 10:30";189
"31.03.2024 10:45";189
"31.03.2024 11:00";188
"31.03.2024 11:15";188
"31.03.2024 11:30";189
"31.03.2024 11:45";189
"31.03.2024 12:00";189
"31.03.2024 12:15";189
"31.03.2024 12:30";189
"31.03.2024 12:45";189
"31.03.2024 13:00";189
"31.03.2024 13:15";189
"31.03.2024 13:30";189
"31.03.2024 13:45";189
"31.03.2024 14:00";189
"31.03.2024 14:15";189
"31.03.2024 14:30";189
"31.03.2024 14:45";188
"31.03.2024 15:00";189
"31.03.2024 15:15";189
"31.03.2024 15:30";189
"31.03.2024 15:45";189
"31.03.2024 16:00";189
"31.03.2024 16:15";189
"31.03.2024 16:30";189
"31.03.2024 16:45";189
"31.03.2024 17:00";189
"31.03.2024 17:15";189
"31.03.2024 17:30";189
"31.03.2024 17:45";189
"31.03.2024 18:00";189
"31.03.2024 18:15";189
"31.03.2024 18:30";189
"31.03.2024 18:45";189
"31.03.2024 19:00";189
"31.03.2024 19:15";189
"31.03.2024 19:30";189
"31.03.2024 19:45";189
"31.03.2024 20:00";189
"31.03.2024 20:15";189
"31.03.2024 20:30";189
"31.03.2024 20:45";189
"31.03.2024 21:00";189
"31.03.2024 21:15";189
"31.03.2024 21:30";189
"31.03.2024 21:45";189
"31.03.2024 22:00";189
"31.03.2024 22:15";189
"31.03.2024 22:30";189
"31.03.2024 22:45";189
"31.03.2024 23:00";189
"31.03.2024 23:15";189
"31.03.2024 23:30";189
"31.03.2024 23:45";189
"01.04.2024 00:00";189
"01.04.2024 00:15";189
"01.04.2024 00:30";189
"01.04.2024 00:45";189
"01.04.2024 01:00";189
"01.04.2024 01:15";189
"01.04.2024 01:30";189
"01.04.2024 01:45";189
"01.04.2024 02:00";189
"01.04.2024 02:15";189
"01.04.2024 02:30";189
"01.04.2024 02:45";189
"01.04.2024 03:00";189
"01.04.2024 03:15";189
"01.04.2024 03:30";189
"01.04.2024 03:45";189
"01.04.2024 04:00";189
"01.04.2024 04:15";189
"01.04.2024 04:30";189
"01.04.2024 04:45";189
"01.04.2024 05:00";189
"01.04.2024 05:15";189
"01.04.2024 05:30";189
"01.04.2024 05:45";189
"01.04.2024 06:00";189
"01.04.2024 06:15";189
"01.04.2024 06:30";189
"01.04.2024 06:45";189
"01.04.2024 07:00";189
"01.04.2024 07:15";189
"01.04.2024 07:30";189
"01.04.2024 07:45";189
"01.04.2024 08:00";189
"01.04.2024 08:15";189
"01.04.2024 08:30";189
"01.04.2024 08:45";189
"01.04.2024 09:00";189
"01.04.2024 09:15";189
"01.04.2024 09:30";189
"01.04.2024 09:45";189
"01.04.2024 10:00";189
"01.04.2024 10:15";189
"01.04.2024 10:30";189
"01.04.2024 10:45";189
"01.04.2024 11:00";189
"01.04.2024 11:15";189
"01.04.2024 11:30";189
"01.04.2024 11:45";189
"01.04.2024 12:00";189
"01.04.2024 12:15";189
"01.04.2024 12:30";189
"01.04.2024 12:45";189
"01.04.2024 13:00";189
"01.04.2024 13:15";189
"01.04.2024 13:30";189
"01.04.2024 13:45";189
"01.04.2024 14:00";189
"01.04.2024 14:15";189
"01.04.2024 14:30";189
"01.04.2024 14:45";190
"01.04.2024 15:00";190
"01.04.2024 15:15";191
"01.04.2024 15:30";190
"01.04.2024 15:45";191
"01.04.2024 16:00";191
"01.04.2024 16:15";191
"01.04.2024 16:30";191
"01.04.2024 16:45";191
"01.04.2024 17:00";191
"01.04.2024 17:15";189
"01.04.2024 17:30";189
"01.04.2024 17:45";189
"01.04.2024 18:00";189
"01.04.2024 18:15";189
"01.04.2024 18:30";189
"01.04.2024 18:45";190
"01.04.2024 19:00";190
"01.04.2024 19:15";190
"01.04.2024 19:30";190
"01.04.2024 19:45";189
"01.04.2024 20:00";189
"01.04.2024 20:15";190
"01.04.2024 20:30";189
"01.04.2024 20:45";189
"01.04.2024 21:00";190
"01.04.2024 21:15";189
"01.04.2024 21:30";189
"01.04.2024 21:45";189
"01.04.2024 22:00";189
"01.04.2024 22:15";189
"01.04.2024 22:30";190
"01.04.2024 22:45";189
"01.04.2024 23:00";189
"01.04.2024 23:15";189
"01.04.2024 23:30";189
"01.04.2024 23:45";189
"02.04.2024 00:00";189
"02.04.2024 00:15";189
"02.04.2024 00:30";189
"02.04.2024 00:45";189
"02.04.2024 01:00";189
"02.04.2024 01:15";189
"02.04.2024 01:30";189
"02.04.2024 01:45";189
"02.04.2024 02:00";189
"02.04.2024 02:15";189
"02.04.2024 02:30";189
"02.04.2024 02:45";189
"02.04.2024 03:00";189
"02.04.2024 03:15";189
"02.04.2024 03:30";189
"02.04.2024 03:45";189
"02.04.2024 04:00";189
"02.04.2024 04:15";189
"02.04.2024 04:30";189
"02.04.2024 04:45";189
"02.04.2024 05:00";189
"02.04.2024 05:15";189
"02.04.2024 05:30";189
"02.04.2024 05:45";189
"02.04.2024 06:00";189
"02.04.2024 06:15";189
"02.04.2024 06:30";189
"02.04.2024 06:45";189
"02.04.2024 07:00";189
"02.04.2024 07:15";189
"02.04.2024 07:30";189
"02.04.2024 07:45";189
"02.04.2024 08:00";189
"02.04.2024 08:15";189
"02.04.2024 08:30";190
"02.04.2024 08:45";189
"02.04.2024 09:00";190
"02.04.2024 09:15";190
"02.04.2024 09:30";189
"02.04.2024 09:45";189
"02.04.2024 10:00";189
"02.04.2024 10:15";190
"02.04.2024 10:30";190
"02.04.2024 10:45";189
"02.04.2024 11:00";190
"02.04.2024 11:15";190
"02.04.2024 11:30";190
"02.04.2024 11:45";190
"02.04.2024 12:00";190
"02.04.2024 12:15";191
"02.04.2024 12:30";191
"02.04.2024 12:45";190
"02.04.2024 13:00";191
"02.04.2024 13:15";190
"02.04.2024 13:30";190
"02.04.2024 13:45";191
"02.04.2024 14:00";190
"02.04.2024 14:15";190
"02.04.2024 14:30";190
"02.04.2024 14:45";190
"02.04.2024 15:00";190
"02.04.2024 15:15";190
"02.04.2024 15:30";190
"02.04.2024 15:45";190
"02.04.2024 16:00";190
"02.04.2024 16:15";191
"02.04.2024 16:30";190
"02.04.2024 16:45";190
"02.04.2024 17:00";190
"02.04.2024 17:15";190
"02.04.2024 17:30";190
"02.04.2024 17:45";190
"02.04.2024 18:00";190
"02.04.2024 18:15";190
"02.04.2024 18:30";190
"02.04.2024 18:45";190
"02.04.2024 19:00";190
"02.04.2024 19:15";190
"02.04.2024 19:30";190
"02.04.2024 19:45";190
"02.04.2024 20:00";190
"02.04.2024 20:15";190
"02.04.2024 20:30";190
"02.04.2024 20:45";190
"02.04.2024 21:00";190
"02.04.2024 21:15";190
"02.04.2024 21:30";190
"02.04.2024 21:45";190
"02.04.2024 22:00";190
"02.04.2024 22:15";190
"02.04.2024 22:30";190
"02.04.2024 22:45";190
"02.04.2024 23:00";190
"02.04.2024 23:15";190
"02.04.2024 23:30";190
"02.04.2024 23:45";190
"03.04.2024 00:00";190
"03.04.2024 00:15";190
"03.04.2024 00:30";190
"03.04.2024 00:45";190
"03.04.2024 01:00";190
"03.04.2024 01:15";190
"03.04.2024 01:30";190
"03.04.2024 01:45";190
"03.04.2024 02:00";190
"03.04.2024 02:15";190
"03.04.2024 02:30";190
"03.04.2024 02:45";190
"03.04.2024 03:00";190
"03.04.2024 03:15";190
"03.04.2024 03:30";190
"03.04.2024 03:45";190
"03.04.2024 04:00";190
"03.04.2024 04:15";190
"03.04.2024 04:30";190
"03.04.2024 04:45";190
"03.04.2024 05:00";190
"03.04.2024 05:15";190
"03.04.2024 05:30";190
"03.04.2024 05:45";190
"03.04.2024 06:00";190
"03.04.2024 06:15";190
"03.04.2024 06:30";190
"03.04.2024 06:45";190
"03.04.2024 07:00";190
"03.04.2024 07:15";190
"03.04.2024 07:30";190
"03.04.2024 07:45";190
"03.04.2024 08:00";190
"03.04.2024 08:15";190
"03.04.2024 08:30";190
"03.04.2024 08:45";190
"03.04.2024 09:00";190
"03.04.2024 09:15";190
"03.04.2024 09:30";190
"03.04.2024 09:45";190
"03.04.2024 10:00";190
"03.04.2024 10:15";190
"03.04.2024 10:30";190
"03.04.2024 10:45";190
"03.04.2024 11:00";190
"03.04.2024 11:15";190
"03.04.2024 11:30";190
"03.04.2024 11:45";190
"03.04.2024 12:00";190
"03.04.2024 12:15";190
"03.04.2024 12:30";190
"03.04.2024 12:45";191
"03.04.2024 13:00";191
"03.04.2024 13:15";191
"03.04.2024 13:30";191
"03.04.2024 13:45";191
"03.04.2024 14:00";191
"03.04.2024 14:15";191
"03.04.2024 14:30";191
"03.04.2024 14:45";191
"03.04.2024 15:00";191
"03.04.2024 15:15";191
"03.04.2024 15:30";191
"03.04.2024 15:45";191
"03.04.2024 16:00";191
"03.04.2024 16:15";191
"03.04.2024 16:30";191
"03.04.2024 16:45";191
"03.04.2024 17:00";191
"03.04.2024 17:15";191
"03.04.2024 17:30";191
"03.04.2024 17:45";191
"03.04.2024 18:00";191
"03.04.2024 18:15";192
"03.04.2024 18:30";192
"03.04.2024 18:45";192
"03.04.2024 19:00";192